Weather in Totomitsa

Russia / Kostroma Oblast     58°26′32″N   43°47′40″E
temp.,
°C
wind,
m/s
gust,
m/s
humid.,
%
clouds,
%
prec.,
mm/h
press.,
hPa
HPBL,
m
24 september, fri
fri2400:00+8ese41094100 0.0 1014629
03:00+8ese4997100 1.4 1012611
06:00+8se41096100 3.3 1010541
09:00+8se41096100 3.8 1010809
12:00+9sse4993100 0.3 1011710
15:00+10se4790100 0.4 1011602
18:00+8se389728 0.1 1011270
21:00+7se369893 0.1 1011241
25 september, sat
sat2500:00+8se259197 0.0 1011258
03:00+7se229250 0.0 101166
06:00+5ese239812 0.0 101147
09:00+10se238752 0.0 1011425
12:00+13se226899 0.1 1010788
15:00+12ese2268100 0.3 1010705
18:00+9se2687100 0.3 1011170
21:00+6se269942 0.3 1011163
26 september, sun
sun2600:00+6ese259997 0.0 1011118
03:00+6ese2499100 0.0 1010115
06:00+6e2499100 0.0 1010134
09:00+9e358996 0.0 1010436
12:00+10e237799 0.0 1011699
15:00+11ne3468100 0.1 10121057
18:00+9nne368896 0.1 1014386
21:00+7n379199 0.1 1015334
27 september, mon
mon2700:00+7n3890100 0.0 1016383
03:00+8n4993100 0.0 1017550
06:00+8nne3893100 0.9 1018714
09:00+8nne4991100 1.4 1019743
12:00+7ne4892100 0.3 1022792
15:00+7ne4792100 0.4 1024711
18:00+7ne3892100 0.0 1026617
21:00+6ne3792100 0.1 1027524
28 september, tue
tue2800:00+6ne2592100 0.0 1028382
03:00+5nne2494100 0.0 1029223
06:00+5n2694100 0.0 1030286
09:00+6nne2691100 0.0 1030411
12:00+7n3582100 0.0 1030729
15:00+7n2785100 0.1 1030673
18:00+6n2589100 0.0 1031231
21:00+5n2695100 0.0 1031184